Flag for USA

Past Weather in Scottsdale, Arizona, USA — Yesterday and Last 2 Weeks

Now
100 °F

Sunny.


Feels Like: 95 °F
Forecast: 98 / 72 °F
Wind: 8 mph from Southwest

Location: Scottsdale Airport
Current Time: Sep 28, 2020 at 4:04:04 pm
Latest Report: Sep 28, 2020 at 2:53 pm
Visibility: 10 mi
Pressure29.81 "Hg
Humidity: 10%
Dew Point: 34 °F
Location of ScottsdaleLocation

Past Weather in Scottsdale — Graph

°F

Scottsdale Temperature Yesterday

Maximum temperature yesterday: 99 °F (at 2:53 pm)
Minimum temperature yesterday: 71 °F (at 6:53 am)
Average temperature yesterday: 86 °F

High & Low Weather Summary for the Past Weeks

 TemperatureHumidityPressure
High106 °F (Sep 16, 3:53 pm)43% (Sep 23, 5:53 am)29.99 "Hg (Sep 23, 5:53 am)
Low70 °F (Sep 28, 4:53 am)7% (Sep 16, 4:53 pm)29.71 "Hg (Sep 19, 4:53 pm)
Average90 °F21%29.83 "Hg
* Reported Sep 13 2:53 pm — Sep 28 2:53 pm, Scottsdale. Weather by CustomWeather, © 2020

Note: Actual official high and low records may vary slightly from our data, if they occured in-between our weather recording intervals... More about our weather records

Scottsdale Weather History for the Previous 24 Hours

Scroll right to see more
 ConditionsComfort  
Time TempWeatherWind HumidityBarometerVisibility
2:53 pm
Mon, Sep 28
100 °FSunny.8 mph10%29.81 "Hg10 mi
1:53 pm99 °FSunny.5 mph10%29.82 "Hg10 mi
12:53 pm98 °FSunny.3 mph10%29.85 "Hg10 mi
11:53 am96 °FSunny.6 mph12%29.88 "Hg10 mi
10:53 am93 °FSunny.3 mph13%29.88 "Hg10 mi
9:53 am87 °FSunny.3 mph16%29.89 "Hg10 mi
8:53 am82 °FSunny.No wind22%29.89 "Hg10 mi
7:53 am75 °FSunny.No wind28%29.88 "Hg10 mi
6:53 am73 °FSunny.No wind30%29.86 "Hg10 mi
5:53 am71 °FClear.3 mph36%29.84 "Hg10 mi
4:53 am70 °FClear.3 mph39%29.82 "Hg10 mi
3:53 am72 °FClear.No wind34%29.80 "Hg10 mi
2:53 am78 °FClear.No wind23%29.79 "Hg10 mi
1:53 am78 °FClear.No wind24%29.80 "Hg10 mi
12:53 am77 °FClear.No wind24%29.80 "Hg10 mi
11:53 pm
Sun, Sep 27
79 °FClear.No wind24%29.79 "Hg10 mi
10:53 pm84 °FClear.No wind17%29.78 "Hg10 mi
9:53 pm85 °FClear.3 mph19%29.78 "Hg10 mi
8:53 pm88 °FClear.No wind16%29.78 "Hg10 mi
7:53 pm89 °FClear.No wind15%29.77 "Hg10 mi
6:53 pm93 °FClear.No wind12%29.75 "Hg10 mi
5:53 pm97 °FSunny.6 mph11%29.74 "Hg10 mi
4:53 pm98 °FSunny.9 mph11%29.75 "Hg10 mi
Weather by CustomWeather, © 2020

See weather overview